Regional Weather Roundup
Issued by NWS

Home | Current Version | Previous Version | Graphics & Text | Print | Product List | Glossary On
Versions: 1 2 3 4 5 6 7 8 9 10 11 12 13 14 15 16 17 18 19 20 21 22 23 24 25 26 27 28 29 30 31 32 33 34 35 36 37 38 39 40 41 42 43 44 45 46 47 48 49 50
000
ASUS45 KABQ 250201
RWRNM
NEW MEXICO REGIONAL WEATHER ROUNDUP
NATIONAL WEATHER SERVICE ALBUQUERQUE NM
800 PM MDT WED MAY 24 2017

NOTE: "FAIR" MEANS FEW OR NO CLOUDS BELOW 12,000 FEET AGL WITH NO
       SIGNIFICANT WEATHER OR OBSTRUCTIONS TO VISION.

      THIS PRODUCT IS RELEASED AS TWO VERSIONS.  ONE VERSION NEAR
      THE TOP OF THE HOUR CONTAINING PRELIMINARY DATA FROM ALBUQUERQUE
      AND OTHER STATIONS.  A FINAL VERSION WITH ADDITIONAL DATA IS
      ISSUED ABOUT 10 MINUTES AFTER THE HOUR.

NMZ501-503-504-510>518-250300-
NORTHWEST PLATEAU/NORTHCENTRAL MOUNTAINS

CITY           SKY/WX    TMP DP  RH WIND       PRES   REMARKS
FARMINGTON     FAIR      80  19  10 W9        29.73F
LOS ALAMOS     FAIR      73  21  14 W3        29.91S
SANTA FE       FAIR      77  23  13 W15G21    29.82S
TAOS           FAIR      70  21  16 NW12      29.89S

$$
NMZ402-403-502-505>509-250300-
WESTCENTRAL MOUNTAINS/SOUTHWEST MOUNTAINS

CITY           SKY/WX    TMP DP  RH WIND       PRES   REMARKS
GALLUP         FAIR      76  21  12 W17G26    29.87S
GRANTS         FAIR      77  15   9 W13G21    29.89S
SILVER CITY    FAIR      81  16   9 W13       29.88S

$$
NMZ407-409-411-412-250300-
SOUTHERN DESERTS

CITY           SKY/WX    TMP DP  RH WIND       PRES   REMARKS
DEMING         FAIR      89  12   5 W16G24    29.78S
LAS CRUCES     FAIR      88  16   7 W15G22    29.79S
HOLLOMAN AFB   FAIR      88  17   7 SW13      29.74F
ALAMOGORDO     FAIR      84  23  10 S12       29.74S
T OR C         FAIR      88  15   6 W15       29.75R

$$
NMZ519>523-250300-
CENTRAL VALLEYS/CENTRAL HIGHLANDS

CITY           SKY/WX    TMP DP  RH WIND       PRES   REMARKS
ALBUQUERQUE    FAIR      84  18   8 W14       29.77S
DOUBLE EAGLE   PTCLDY    81  23  12 W16       29.82R
MORIARTY ARPT  FAIR      78  22  12 W15       29.84S
CLINES CORNERS FAIR      71  23  16 W13       29.88S
BELEN          FAIR      83  15   8 W9        29.78R
SOCORRO        NOT AVBL

$$
NMZ524>526-539-540-250300-
SOUTHCENTRAL MOUNTAINS

CITY           SKY/WX    TMP DP  RH WIND       PRES   REMARKS
RUIDOSO        NOT AVBL

$$
NMZ527>531-250300-
NORTHEAST HIGHLANDS/NORTHEAST PLAINS

CITY           SKY/WX    TMP DP  RH WIND       PRES   REMARKS
LAS VEGAS      FAIR      71  21  15 W14       29.85R
RATON          FAIR      72  31  22 W17       29.74R
CLAYTON        FAIR      63  44  50 S12       29.69S

$$
NMZ532>537-250300-
EASTCENTRAL PLAINS

CITY           SKY/WX    TMP DP  RH WIND       PRES   REMARKS
SANTA ROSA     FAIR      82  26  12 W12       29.69S
TUCUMCARI      FAIR      75  43  31 SE8       29.60S
CANNON AFB     FAIR      77  38  24 SE7       29.69S
CLOVIS AIRPORT FAIR      75  37  25 SE12      29.70S

$$
NMZ028-029-538-250300-
SOUTHEAST PLAINS

CITY           SKY/WX    TMP DP  RH WIND       PRES   REMARKS
ROSWELL        FAIR      86  27  11 SW12      29.67S
ARTESIA        FAIR      90  32  12 W8        29.69R
CARLSBAD       FAIR      88  30  12 W16       29.66R
HOBBS          FAIR      79  32  18 S8        29.73S


$$



USA.gov is the U.S. government's official web portal to all federal, state and local government web resources and services.